Location: ?????????
(41.2393°N, 22.9479°E)
Time: 06:03:29
(UTC+00:00)

Cosmos 2082 Rocket - Pass Details

Date: 17 November 2025
Orbit: 834 x 851 km, 71.0° (Epoch: 09 December)

Event Time Altitude Azimuth Distance (km) Brightness Sun altitude
Rises 16:05:24 0° 342° (NNW) 3,389 5.4 -11.1°
Reaches altitude 10° 16:08:02 10° 351° (N) 2,451 4.5 -11.5°
Maximum altitude 16:13:13 37° 58° (ENE) 1,277 2.7 -12.5°
Drops below altitude 10° 16:18:23 10° 126° (SE) 2,441 4.2 -13.4°
Sets 16:20:59 0° 134° (SE) 3,374 5.0 -13.9°
